FENGYUN 1C DEB, 30916

Orbit data source: Space-Track

FENGYUN 1C DEB, 30916 is space debris in SSO originally from a launch on Mon, 10 May 1999 UTC launched from the Taiyaun Space Center, China (TSC). Fengyun 1C debris stems from the Chinese weather satellite Fengyun-1C, which was intentionally destroyed by a Chinese anti-satellite missile in 2007. This event dramatically increased the amount of space debris, with thousands of trackable fragments posing hazards to satellites and human spaceflight. The Fengyun 1C debris cloud has become a focal point in discussions about space sustainability and the need for international regulations to prevent the creation of new debris.

Loading next visibility...
Identifier
30916, 1999-025AZE
Orbit
SSO
Country
Flag of CNCN / PRC
Related business
Manufacturer
Unknown
Mission
Spacecraft
Bus & Motor
Unknown
Mass
Unknown
Launch date (UTC)
1999-05-10 (27 years ago)
Launch vehicle
Unknown
Launch site
Taiyaun Space Center, China (TSC)
Object type
Payload
Rocket body
Debris
Shape & HBR
Unknown shape, 0.1 m
Radar Cross Section
Small (<0.1 m²)

Expand to show TLE details & history
Last TLE update: 18 hours ago

TLE from 18 hours ago
0 FENGYUN 1C DEB
1 30916U 99025AZE 26169.14936785  .00001102  00000-0  64279-3 0  9996
2 30916  98.9807 234.0787 0065560  94.6842 322.3305 14.09503726984835
Epoch: 2026-06-18T03:35Z
TLE epoch observation values (Epoch: 2026-06-18T03:35:05.382Z)
Latitude
55.60429°
Longitude
-99.36556°
Altitude
832.808 km
Speed
7.461 km/s
True Right ascension
14h 43m 12s
True Declination
55° 26' 44"
Sunlit
Object was in daylight at epoch
Visualization orbit readout
Latitude
Unknown
Longitude
Unknown
Altitude
Unknown
Speed
Unknown
Apparent Right ascension
Unknown
Apparent Declination
Unknown
Sunlit
N/A
Visualization observer readout
Local Sidereal Time
08:50:53
Azimuth
Unknown
Elevation
Unknown
Doppler factor
Unknown
Orbital elements
Apogee altitude
905.698 km
Perigee altitude
810.814 km
Semi-major axis
7,236.393 km
Eccentricity
0.00656
Inclination
98.9807°
RAAN
234.0787°
Arg. of periapsis
94.6842°
True anomaly
321.86841°
Mean anomaly
322.3305°
Eccentric anomaly
322.09975°
Mean motion
3.52582 °/min
Orbital period
102.1 mins
BSTAR
0.00064279
Loading maneuver chart data...
Computing Atmospheric mass density...
Loading historical data...
Loading historical data...
Loading historical data...
Loading historical data...
Loading historical data...
Loading historical data...
Loading historical data...

Documentation

Showing up to 5 results
|